TIANMU-1 15

Last updated on Fri Jul 11 2025 00:02:21 GMT+0000 (Coordinated Universal Time)

1 58700U 24004A 25191.56069944 .00003051 00000+0 13587-3 0 9996 2 58700 97.4652 13.8667 0008258 111.7421 248.4695 15.22186815 83723
UTC large
Height (km)
Speed (km/s)
/
Latitude / Longitude
Inclination (degrees)
Orbital Period (minutes)
Azimuth
Elevation
Range (km)
Doppler Factor

Next 0 passes for location: London (51.5072 / 0.1276)

Sorry there are no passes over London.